Weather History for Kenai, AK

Change the Weather History Date:

Wednesday, February 8, 2012

  Actual Average Record
Temperature  
Mean Temperature 28 °F -  
Max Temperature 33 °F 26 °F 42 °F (1971)
Min Temperature 24 °F 10 °F -32 °F (1999)
Degree Days  
Heating Degree Days 37    
Moisture  
Dew Point 22 °F    
Average Humidity 74    
Maximum Humidity 85    
Minimum Humidity 69    
Precipitation  
Precipitation 0.00 in - - ()
Sea Level Pressure  
Sea Level Pressure 29.47 in    
Wind  
Wind Speed 19 mph (NNE)    
Max Wind Speed 26 mph    
Max Gust Speed 37 mph    
Visibility 10 miles    
Events      
Averages and records for this station are not official NWS values.
T = Trace of Precipitation, MM = Missing Value Source: NWS Daily Summary

Daily Weather History Graph

Daily Weather History Graph

Search for Another Location

Airport:

Trip Planner

Search our weather history database for the weather conditions in past years. The results will help you decide how hot, cold, wet, or windy it might be!

Date:

Astronomy

Feb. 08, 2012 Rise Set
Actual Time 9:04 AM AKST 5:34 PM AKST
Civil Twilight 8:18 AM AKST 6:20 PM AKST
Nautical Twilight 7:27 AM AKST 7:11 PM AKST
Astronomical Twilight 6:38 AM AKST 8:00 PM AKST
Moon 7:46 PM AKST (2/8) 8:41 AM AKST (2/8)
Length of Visible Light 10h 02m
Length of Day
8h 29m
Full, 99% of the Moon is Illuminated
Feb 8
Full
Feb 14
Last Quarter
Feb 21
New
Feb 29
First Quarter
Mar 8
Full

Hourly Weather History & Observations

Time (AKST) Temp. Windchill Dew Point Humidity Pressure Visibility Wind Dir Wind Speed Gust Speed Precip Events Conditions
12:53 AM 24.1 °F 13.1 °F 19.0 °F 81% 29.60 in 10.0 mi NNE 11.5 mph - N/A   Clear
1:53 AM 26.1 °F 14.0 °F 18.0 °F 71% 29.58 in 10.0 mi NNE 15.0 mph - N/A   Clear
2:53 AM 25.0 °F 11.7 °F 18.0 °F 75% 29.57 in 10.0 mi NNE 17.3 mph - N/A   Clear
3:53 AM 27.0 °F 15.2 °F 18.0 °F 69% 29.55 in 10.0 mi NNE 15.0 mph - N/A   Clear
4:53 AM 26.1 °F 12.7 °F 19.0 °F 75% 29.53 in 10.0 mi NNE 18.4 mph - N/A   Clear
5:53 AM 27.0 °F 13.2 °F 21.0 °F 78% 29.51 in 10.0 mi NNE 20.7 mph - N/A   Scattered Clouds
6:53 AM 28.0 °F 14.3 °F 21.0 °F 75% 29.51 in 10.0 mi NNE 21.9 mph - N/A   Overcast
7:53 AM 28.9 °F 14.5 °F 19.9 °F 69% 29.51 in 10.0 mi NNE 25.3 mph - N/A   Overcast
8:53 AM 28.9 °F 14.8 °F 21.0 °F 72% 29.50 in 10.0 mi NNE 24.2 mph 31.1 mph N/A   Overcast
9:53 AM 27.0 °F 12.5 °F 19.9 °F 75% 29.50 in 10.0 mi North 23.0 mph - N/A   Scattered Clouds
10:53 AM 28.9 °F 14.8 °F 21.0 °F 72% 29.49 in 9.0 mi NNE 24.2 mph 33.4 mph N/A   Partly Cloudy
11:53 AM 28.9 °F 15.1 °F 19.9 °F 69% 29.49 in 10.0 mi NNE 23.0 mph - N/A   Mostly Cloudy
12:53 PM 28.9 °F 14.3 °F 21.9 °F 75% 29.49 in 8.0 mi North 26.5 mph 32.2 mph N/A   Partly Cloudy
1:53 PM 28.9 °F 14.3 °F 21.9 °F 75% 29.45 in 10.0 mi NNE 26.5 mph 35.7 mph 0.00 in   Mostly Cloudy
2:53 PM 30.0 °F 16.0 °F 21.9 °F 72% 29.43 in 9.0 mi NNE 25.3 mph 33.4 mph N/A   Mostly Cloudy
3:53 PM 30.0 °F 15.7 °F 21.9 °F 72% 29.42 in 10.0 mi NNE 26.5 mph 36.8 mph N/A   Scattered Clouds
4:53 PM 30.9 °F 18.1 °F 21.9 °F 69% 29.40 in 10.0 mi NNE 21.9 mph - N/A   Clear
5:53 PM 30.9 °F 17.8 °F 21.9 °F 69% 29.39 in 10.0 mi NNE 23.0 mph - N/A   Partly Cloudy
6:53 PM 30.9 °F 18.1 °F 24.1 °F 76% 29.37 in 10.0 mi NNE 21.9 mph - N/A   Clear
7:53 PM 30.9 °F 17.5 °F 24.1 °F 76% 29.37 in 10.0 mi NNE 24.2 mph 32.2 mph N/A   Clear
8:53 PM 32.0 °F 20.1 °F 25.0 °F 75% 29.39 in 10.0 mi NNE 19.6 mph - N/A   Clear
9:53 PM 30.9 °F 18.4 °F 25.0 °F 79% 29.38 in 10.0 mi NNE 20.7 mph - N/A   Partly Cloudy
10:53 PM 32.0 °F 20.8 °F 27.0 °F 82% 29.42 in 10.0 mi NE 17.3 mph - N/A   Scattered Clouds
11:53 PM 33.1 °F 26.1 °F 28.9 °F 85% 29.47 in 10.0 mi NE 8.1 mph - 0.00 in   Overcast